Location: Unspecified
(0.0000°N, 0.0000°E)
Time: 12:55:15
(UTC+00:00)

N. Korean satellite - Pass Details

Date: 29 March 2020
Orbit: 454 x 507 km, 97.2° (Epoch: 01 April)

Event Time Altitude Azimuth Distance (km) Brightness Sun altitude
Rises 05:06:36 0° 19° (NNE) 2,451 10.5 -14.5°
Reaches altitude 10° 05:08:40 10° 25° (NNE) 1,581 9.5 -14.0°
Maximum altitude 05:11:57 48° 101° (E) 598 7.5 -13.2°
Drops below altitude 10° 05:15:15 10° 177° (S) 1,596 9.2 -12.3°
Sets 05:17:20 0° 182° (S) 2,477 10.1 -11.8°
